Gold Country Challenge - Two Day Inventory

Station: Loft Fly - T Race

Distance: 0.3 Miles    

Release: 04-Jun-2018 09:45

Weather Release: Hand Scan    Arrival: Hand Scan

Wind at Release:     Wind at Arrival:

Temp at Release: °    Temp at Arrival: °

Lofts: 88

Birds: 413

Clocked: 373

Two Day Inventory - Pulling 10th Flight on Most Birds + Hand Scan
Drops Pos Breeder Pigeon Name Color Sex Ent Arrival Speed To Win Eligible Champ
300 Flying W - CA 0618-AU18-AUB GRIZ H 1 2018-06-05 10:37:50.70 0.526 16:39:37 Yes
300 American Star Racing Pigeons - CA 5405-AU18-ARPU BB H 1 2018-06-05 10:38:27.10 0.526 16:39:37 Yes
303 Triangle F Loft - UT 1090-AU18-UVI BB H 5 2018-06-05 10:39:01.10 0.525 16:41:31 Yes
303 Scrub Family Loft - MN 0054-AU18-UNIT BB H 3 2018-06-05 10:39:37.30 0.525 16:41:31 Yes
303 H & H Flying Circus - CA 0807-AU18-ML BC H 4 2018-06-05 10:40:13.00 0.525 16:41:31 Yes
306 D J's Loft Of Ca - CA 1919-AU18-FSC BB H 1 2018-06-05 10:40:55.30 0.524 16:43:26 Yes
306 Bolgar Loft - CA 3344-AU18-FSC BC H 1 2018-06-05 10:41:26.20 0.524 16:43:26 Yes
306 Alpha & Omega Lofts - NV 18992-AU18-RENO SMOK H 1 2018-06-05 10:42:22.30 0.524 16:43:26 Yes
309 Racing Pigeon Mall - WA 0818-AU18-RPM BB H 4 2018-06-05 10:44:07.60 0.523 16:45:22 Yes
310 Flying W - CA 0609-AU18-AUB BB H 2 2018-06-05 10:44:42.20 0.522 16:47:18 Yes
310 Plymouth Peak Pro Challenge - UT 8564-AU18-HL BC H 2 2018-06-05 10:45:08.20 0.522 16:47:18 Yes
310 Fantastic 4 Syndicate - CA 63992-AU18-ARPU BC H 4 2018-06-05 10:45:47.40 0.522 16:47:18 Yes
310 American Star Racing Pigeons - CA 5404-AU18-ARPU BB H 2 2018-06-05 10:46:16.60 0.522 16:47:18 Yes
314 M V - CA 8667-AU18-JEDD BC H 1 2018-06-05 10:46:59.40 0.521 16:49:15 Yes
314 Racing Pigeon Mall - WA 0816-AU18-RPM BB H 5 2018-06-05 10:47:28.90 0.521 16:49:15 Yes
314 M V - CA 8668-AU18-JEDD PIED H 2 2018-06-05 10:48:02.10 0.521 16:49:15 Yes
317 Flying W - CA 0616-AU18-AUB BB H 3 2018-06-05 10:48:45.30 0.520 16:51:11 Yes
317 Flying D Loft - TX 0681-AU18-FLYD BB H 2 2018-06-05 10:49:18.90 0.520 16:51:11 Yes
317 Flying D Loft - TX 0648-AU18-FLYD BBSP H 1 2018-06-05 10:49:53.10 0.520 16:51:11 Yes
320 De La O-Siino - CA 8112-AU18-COOK BB H 4 2018-06-05 10:50:26.10 0.519 16:53:09 Yes
320 Alpha & Omega Lofts - NV 19030-AU18-RENO BLK H 2 2018-06-05 10:51:13.70 0.519 16:53:09 Yes
320 Dream Team - VT 18558-AU18-DT 0303/15825 BC H 1 2018-06-05 10:51:56.80 0.519 16:53:09 Yes
323 Dream Team - VT 18537-AU18-DT 6883/27873 BB H 2 2018-06-05 10:52:51.30 0.518 16:55:07 Yes
323 Cloux Loft - CO 8319-AU18-FH BBPD H 3 2018-06-05 10:53:58.60 0.518 16:55:07 Yes
325 Flying W - CA 0617-AU18-AUB BB H 4 2018-06-05 10:54:47.90 0.517 16:57:05 Yes
325 American Star Racing Pigeons - CA 5407-AU18-ARPU BB H 3 2018-06-05 10:55:26.30 0.517 16:57:05 Yes
327 Cloux Loft - CO 8320-AU18-FH BBPD H 4 2018-06-05 10:56:52.80 0.516 16:59:04 Yes
327 Dream Team - VT 18555-AU18-DT 0929/15833 BB H 3 2018-06-05 10:58:14.30 0.516 16:59:04 Yes
329 Cloux Loft - CO 8348-AU18-FH BCPD H 5 2018-06-05 11:03:11.70 0.513 17:05:03 Yes
330 American Star Racing Pigeons - CA 5406-AU18-ARPU BB H 4 2018-06-05 11:14:56.90 0.507 17:17:14 Yes
330 Dream Team - VT 18554-AU18-DT 0929/15833 BC H 4 2018-06-05 11:15:47.20 0.507 17:17:14 Yes
332 Bolgar Loft - CA 3341-AU18-FSC BC H 2 2018-06-05 11:16:36.30 0.506 17:19:17 Yes
332 Marengo Creek Farms - AL 3097-AU18-MCF BC H 6 2018-06-05 11:18:09.70 0.506 17:19:17 Yes
334 Goshentown Lofts - TN 5247-AU18-VITA BB H 1 2018-06-05 11:19:04.00 0.505 17:21:21 Yes
334 Flying D Loft - TX 0684-AU18-FLYD BC H 3 2018-06-05 11:20:02.80 0.505 17:21:21 Yes
336 Dick & Jeff Earthman - NV 0846-AU18-EART PIED H 5 2018-06-05 11:20:41.70 0.504 17:23:26 Yes
336 Racing Pigeon Mall - WA 0817-AU18-RPM BB H 6 2018-06-05 11:21:52.30 0.504 17:23:26 Yes
338 Cloux Loft - CO 8333-AU18-FH BB H 6 2018-06-05 11:22:42.50 0.503 17:25:31 Yes
339 G & J Lofts - CA 3008-AU18-AA Something About Her BB H 6 2018-06-05 11:35:37.00 0.497 17:38:11 Yes
339 Flying W - CA 0600-AU18-AUB BC H 5 2018-06-05 11:36:24.80 0.497 17:38:11 Yes
339 Bolgar Loft - CA 3347-AU18-FSC BB H 3 2018-06-05 11:37:03.10 0.497 17:38:11 Yes
342 Dream Team - VT 18533-AU18-DT 0520/27852 BCWF H 5 2018-06-05 11:38:04.40 0.496 17:40:19 Yes
342 Perfection 2 - KS 4511-AU18-AA SLT H 9 2018-06-05 11:38:46.30 0.496 17:40:19 Yes
342 D J's Loft Of Ca - CA 1918-AU18-FSC BB H 2 2018-06-05 11:39:31.90 0.496 17:40:19 Yes
345 Cloux Loft - CO 8331-AU18-FH BC H 7 2018-06-05 11:40:20.80 0.495 17:42:28 Yes
346 Villarama Family - CA 60982-AU18-ARPU T/R 3 BC H 2 2018-06-05 11:43:07.20 0.494 17:44:38 Yes
347 Marengo Creek Farms - AL 3108-AU18-MCF BCWF H 7 2018-06-05 11:44:03.00 0.493 17:46:48 Yes
347 Villarama Family - CA 60988-AU18-ARPU J/M 2 BB H 3 2018-06-05 11:44:48.90 0.493 17:46:48 Yes
347 Flying W - CA 0605-AU18-AUB BCSP H 6 2018-06-05 11:45:43.70 0.493 17:46:48 Yes
350 Cloux Loft - CO 8305-AU18-FH BB H 8 2018-06-05 11:46:32.40 0.492 17:48:59 Yes
351 Plymouth Peak Pro Challenge - UT 8585-AU18-HL BC H 3 2018-06-05 11:49:17.20 0.491 17:51:10 Yes
352 H & H Flying Circus - CA 0806-AU18-ML BB H 5 2018-06-05 11:50:41.70 0.490 17:53:21 Yes
352 Plymouth Peak Pro Challenge - UT 8437-AU18-HL BC H 4 2018-06-05 11:51:36.70 0.490 17:53:21 Yes
352 Perfection 2 - KS 4516-AU18-AA BB H 10 2018-06-05 11:52:27.40 0.490 17:53:21 Yes
355 Cain & Page - CA 4213-AU18-FSC DC H 1 2018-06-05 11:53:26.50 0.489 17:55:34 Yes
356 Cloux Loft - CO 8304-AU18-FH BB H 9 2018-06-05 11:55:29.70 0.488 17:57:46 Yes
356 Plymouth Peak Pro Challenge - UT 8436-AU18-HL DC H 5 2018-06-05 11:56:25.20 0.488 17:57:46 Yes
358 Cloux Loft - CO 8343-AU18-FH DCPD H 10 2018-06-05 11:57:09.20 0.487 18:00:00 Yes
358 Goshentown Lofts - TN 5248-AU18-VITA BBWF H 2 2018-06-05 11:59:17.10 0.487 18:00:00 Yes
360 Dream Team - VT 18552-AU18-DT 2943/12345 BB H 6 2018-06-05 12:00:11.50 0.486 18:02:14 Yes
361 777-Loft - MN 0156-AU18-SPR BB H 3 2018-06-05 12:10:17.80 0.482 18:11:15 Yes
362 Cain & Page - CA 1726-AU18-FSC BB H 2 2018-06-05 12:11:50.20 0.481 18:13:31 Yes
363 Fleet Washington - DC 1832-AU18-FLET BBWF H 5 2018-06-05 12:13:07.10 0.480 18:15:48 Yes
363 777-Loft - MN 0155-AU18-SPR BC H 4 2018-06-05 12:13:45.20 0.480 18:15:48 Yes
365 Ap Amy & P Lofts - MD 8288-IF18-FOYS RGRZ H 4 2018-06-05 12:19:53.70 0.477 18:22:43 Yes
365 Ap Amy & P Lofts - MD 8289-IF18-FOYS GRIZ H 1 2018-06-05 12:20:40.10 0.477 18:22:43 Yes
365 Ap Amy & P Lofts - MD 8298-IF18-FOYS GRIZ H 2 2018-06-05 12:21:05.20 0.477 18:22:43 Yes
365 Ap Amy & P Lofts - MD 10162-IF18-FOYS BCSP H 3 2018-06-05 12:21:38.80 0.477 18:22:43 Yes
369 Ap Amy & P Lofts - MD 8286-IF18-FOYS BBSP H 7 2018-06-05 12:22:12.30 0.476 18:25:03 Yes
369 Ap Amy & P Lofts - MD 8281-IF18-FOYS BBSP H 8 2018-06-05 12:22:32.10 0.476 18:25:03 Yes
369 Ap Amy & P Lofts - MD 8299-IF18-FOYS BB H 5 2018-06-05 12:23:04.80 0.476 18:25:03 Yes
369 Ap Amy & P Lofts - MD 8300-IF18-FOYS BB H 6 2018-06-05 12:23:36.60 0.476 18:25:03 Yes
373 Utaz Team - UT 0493-AU18-SLI BB H 6 2018-06-05 12:34:23.30 0.471 18:36:50 Yes

There are 396 bird records

Note: These Race Results are unofficial and subject to change until verified by the Race Committee and declared final.